CST,Max TemperatureF,Mean TemperatureF,Min TemperatureF,Max Dew PointF,MeanDew PointF,Min DewpointF,Max Humidity, Mean Humidity, Min Humidity, Max Sea Level PressureIn, Mean Sea Level PressureIn, Min Sea Level PressureIn, Max VisibilityMiles, Mean VisibilityMiles, Min VisibilityMiles, Max Wind SpeedMPH, Mean Wind SpeedMPH, Max Gust SpeedMPH,PrecipitationIn, CloudCover, Events, WindDirDegrees
2013-1-1,51,45,39,52,45,37,100,98,82,30.14,30.06,30.00,10,6,2,15,6,21,0.00,8,Rain,343
2013-1-2,37,34,32,37,33,30,100,93,87,30.26,30.20,30.12,10,8,5,14,7,,0.00,7,,5
2013-1-3,44,37,30,30,28,23,100,81,43,30.42,30.33,30.23,10,8,4,10,4,9,0.00,0,,342
2013-1-4,46,35,24,30,26,21,100,77,37,30.50,30.43,30.39,10,10,10,8,1,,0.00,0,,29
2013-1-5,46,36,26,37,31,27,100,79,46,30.44,30.35,30.28,10,10,7,8,1,,0.00,5,Rain,221
2013-1-6,50,42,33,39,36,30,100,83,54,30.37,30.28,30.22,10,9,3,10,3,17,0.00,5,,309
2013-1-7,50,39,28,32,29,27,100,80,47,30.43,30.34,30.28,10,9,1,7,3,,0.00,0,,56
2013-1-8,60,44,28,43,36,27,100,76,39,30.35,30.28,30.23,10,10,7,9,2,,0.00,2,,146
2013-1-9,55,52,48,55,52,43,100,96,71,30.39,30.34,30.28,10,4,1,10,5,,0.00,8,Rain,99
2013-1-10,66,60,55,63,60,55,100,98,88,30.34,30.21,30.04,10,6,2,20,9,26,0.00,8,Rain,131
2013-1-11,69,66,62,64,63,61,100,94,78,30.12,30.06,30.04,10,9,2,18,10,26,0.00,7,Rain,196
2013-1-12,69,66,64,68,63,59,100,88,73,30.10,30.01,29.91,10,9,4,20,10,28,0.00,7,Rain,188
2013-1-13,69,54,39,66,56,36,100,92,73,30.19,29.99,29.87,10,9,4,23,14,30,0.00,8,Rain,206
2013-1-14,39,36,32,36,33,32,100,96,87,30.31,30.23,30.18,10,8,1,18,10,25,0.00,8,Rain-Snow,25
2013-1-15,35,34,33,36,35,34,100,100,93,30.20,30.10,29.99,10,5,2,13,7,,0.00,8,Rain,27
2013-1-16,37,36,35,37,36,34,100,99,93,30.12,30.08,30.01,10,7,2,12,6,,0.00,8,Rain,356
2013-1-17,42,38,33,36,32,27,100,83,66,30.43,30.14,30.00,10,9,3,23,12,31,0.00,6,Rain-Snow,352
2013-1-18,50,39,28,34,31,28,100,81,43,30.60,30.49,30.42,10,10,5,10,4,,0.00,0,,43
2013-1-19,55,40,26,34,31,27,100,76,41,30.41,30.31,30.23,10,10,7,13,2,17,0.00,0,,223
2013-1-20,57,44,32,37,34,30,100,79,38,30.28,30.21,30.16,10,10,10,8,2,,0.00,0,,278
2013-1-21,46,38,30,32,23,16,100,65,34,30.31,30.24,30.15,10,10,10,15,4,21,0.00,0,,343
2013-1-22,37,32,26,28,19,14,75,57,41,30.43,30.36,30.29,10,10,10,9,4,,0.00,3,,16
2013-1-23,55,44,32,37,29,19,87,58,38,30.38,30.29,30.21,10,10,7,12,4,,0.00,5,,216
2013-1-24,44,40,35,41,25,14,93,57,33,30.42,30.33,30.22,10,10,10,14,5,17,0.00,5,,52
2013-1-25,53,45,37,50,37,21,100,78,45,30.27,30.17,30.10,10,8,2,20,8,24,0.00,8,Rain,248
2013-1-26,51,42,33,39,34,30,100,79,44,30.35,30.30,30.25,10,9,5,9,4,,0.00,3,,37
2013-1-27,51,46,41,37,35,32,81,63,54,30.36,30.31,30.28,10,10,10,12,5,,0.00,6,,131
2013-1-28,64,54,44,52,45,37,100,71,59,30.32,30.24,30.17,10,10,7,16,8,22,0.00,5,,170
2013-1-29,69,56,44,63,58,45,100,87,73,30.18,29.98,29.72,10,9,0,22,7,33,0.00,7,Fog,181
2013-1-30,71,54,35,63,47,27,100,82,65,30.00,29.70,29.58,10,9,2,32,17,48,0.00,8,Rain,244
2013-1-31,50,41,32,32,26,21,80,61,32,30.21,30.12,30.01,10,10,10,18,12,24,0.00,2,,268